Regional Weather Roundup
Issued by NWS Goodland, KS

Home | Current Version | Previous Version | Graphics & Text | Print | Product List | Glossary On
Versions: 1 2 3 4 5 6 7 8 9 10 11 12 13 14 15 16 17 18 19 20 21 22 23 24 25 26 27 28 29 30 31 32 33 34 35 36 37 38 39 40 41 42 43 44 45 46 47 48 49 50
000
ASUS43 KGLD 272308
RWRGLD

GOODLAND FORECAST AREA HOURLY WEATHER ROUNDUP
NATIONAL WEATHER SERVICE GOODLAND KS
500 PM MDT FRI MAR 27 2015

...OFFICIAL OBSERVATIONS...

CITY           SKY/WX    TMP DP  RH WIND       PRES   REMARKS
GOODLAND KS    PTSUNNY   66  35  31 NW12      30.00F
HILL CITY KS   SUNNY     60  35  39 S9        30.01F
IMPERIAL NEB     N/A     69  35  28 N17       29.96F
MCCOOK NEB     MOSUNNY   68  36  30 SW9       29.94F
AKRON CO       MOSUNNY   69  29  22 N24G32    30.02F
BURLINGTON CO  PTSUNNY   68  32  26 N9        30.02F
LIMON CO       SUNNY     67  27  22 NW17G29   30.09S
$$

...UNOFFICIAL OBSERVATIONS...

CITY           SKY/WX    TMP DP  RH WIND       PRES   REMARKS
COLBY KS       MOSUNNY   70  41  35 NW8       29.99F
GOVE KS          N/A     66  32  28 MISG        N/A
LENORA KS        N/A     60  32  34 MISG        N/A
NORTON KS      SUNNY     57  30  35 SE10      29.98F
SHARON SPRINGS   N/A     69  35  29 N13         N/A
TRIBUNE KS     PTSUNNY   70  45  40 W16       30.04F
KIT CARSON CO    N/A     72  34  25 MISG        N/A
YUMA CO          N/A     69  28  21 N20G31      N/A
$$


USA.gov is the U.S. government's official web portal to all federal, state and local government web resources and services.